FW6259 Weather Reports


time (UTC)temp
C
wind
direction
speed
KPH
gust
KPH
rain 1hr
cm
rain 24hr
cm
rain mn
cm
humidity
%
barometer
mb
20260905071504 9 308 0.0 4.8 0.00 0.00 0.00 75 1019.4
20260905070057 8 247 0.0 1.6 0.00 0.00 0.00 77 1019.6
20260905064559 7 247 0.0 1.6 0.00 0.00 0.00 77 1019.6
20260905063100 8 246 0.0 1.6 0.00 0.00 0.00 76 1019.7
20260905061558 10 269 0.0 3.2 0.00 0.00 0.00 74 1019.6
20260905060056 10 210 0.0 1.6 0.00 0.00 0.00 73 1019.6
20260905054503 10 355 0.0 1.6 0.00 0.00 0.00 73 1019.6
20260905053107 11 355 0.0 0.0 0.00 0.00 0.00 70 1019.6
20260905051555 12 356 0.0 0.0 0.00 0.00 0.00 68 1019.4
20260905050043 13 355 0.0 0.0 0.00 0.00 0.00 65 1019.6
20260905044605 13 355 0.0 0.0 0.00 0.00 0.00 63 1019.6
20260905043105 15 355 0.0 0.0 0.00 0.00 0.00 61 1019.7
20260905041502 16 355 0.0 0.0 0.00 0.00 0.00 56 1019.8
20260905040055 17 355 0.0 1.6 0.00 0.00 0.00 53 1019.8
20260905034554 18 342 0.0 3.2 0.00 0.00 0.00 50 1019.9
20260905033058 19 255 1.6 3.2 0.00 0.00 0.00 49 1019.9
20260905031554 19 255 1.6 8.0 0.00 0.00 0.00 49 1019.9
20260905030050 20 269 4.8 11.3 0.00 0.00 0.00 46 1019.8
20260905024601 21 243 3.2 11.3 0.00 0.00 0.00 46 1019.8
20260905023054 20 229 4.8 9.7 0.00 0.00 0.00 47 1019.8
20260905021552 20 248 3.2 11.3 0.00 0.00 0.00 46 1019.9
20260905020051 21 167 4.8 11.3 0.00 0.00 0.00 44 1020.3
20260905014558 21 238 3.2 11.3 0.00 0.00 0.00 45 1020.3
20260905013047 20 277 4.8 9.7 0.00 0.00 0.00 46 1020.5
20260905011505 21 245 6.4 16.1 0.00 0.00 0.00 45 1020.7
20260905010056 21 188 4.8 11.3 0.00 0.00 0.00 45 1020.8
20260905004551 21 233 3.2 9.7 0.00 0.00 0.00 45 1020.9
20260905003053 21 214 1.6 6.4 0.00 0.00 0.00 46 1021.2
20260905001610 20 312 1.6 11.3 0.00 0.00 0.00 47 1021.3
20260905000052 20 285 3.2 8.0 0.00 0.00 0.00 49 1021.5
20260904234544 19 252 3.2 9.7 0.00 0.00 0.00 49 1021.6
20260904233107 19 219 4.8 9.7 0.00 0.00 0.00 47 1021.7
20260904231550 19 290 4.8 17.7 0.00 0.00 0.00 47 1021.9
20260904230046 19 282 8.0 19.3 0.00 0.00 0.00 46 1022.2
20260904224501 20 255 6.4 9.7 0.00 0.00 0.00 46 1022.2
20260904223055 18 251 3.2 9.7 0.00 0.00 0.00 48 1022.3
20260904221554 18 295 4.8 11.3 0.00 0.00 0.00 47 1022.5
20260904220108 18 257 3.2 9.7 0.00 0.00 0.00 46 1022.7
20260904214556 17 271 3.2 9.7 0.00 0.00 0.00 49 1022.8
20260904213050 17 149 1.6 8.0 0.00 0.00 0.00 49 1022.9
20260904211504 17 295 1.6 6.4 0.00 0.00 0.00 50 1023.0
20260904210101 16 148 1.6 8.0 0.00 0.00 0.00 52 1023.2
20260904204549 16 105 3.2 8.0 0.00 0.00 0.00 52 1023.1
20260904203100 15 152 1.6 8.0 0.00 0.00 0.00 54 1023.3
20260904201613 15 131 1.6 12.9 0.00 0.00 0.00 57 1023.5
20260904200052 14 278 1.6 8.0 0.00 0.00 0.00 58 1023.7
20260904194647 13 107 0.0 6.4 0.00 0.00 0.00 62 1023.7
20260904193102 13 79 0.0 4.8 0.00 0.00 0.00 62 1023.7
20260904191549 12 131 3.2 8.0 0.00 0.00 0.00 63 1023.7
20260904190046 12 295 4.8 8.0 0.00 0.00 0.00 63 1023.7
20260904184557 11 134 0.0 4.8 0.00 0.00 0.00 68 1023.8
20260904183045 10 178 0.0 4.8 0.00 0.00 0.00 72 1023.8
20260904181510 9 201 1.6 6.4 0.00 0.00 0.00 73 1023.8
20260904174548 8 233 0.0 4.8 0.00 0.00 0.00 76 1023.8
20260904173117 8 252 0.0 6.4 0.00 0.00 0.00 76 1023.8
20260904171600 8 134 0.0 3.2 0.00 0.00 0.00 77 1023.8
20260904170059 8 120 0.0 1.6 0.00 0.00 0.00 78 1023.7
20260904164504 6 86 0.0 0.0 0.00 0.00 0.00 84 1023.9
20260904163053 6 92 0.0 3.2 0.00 0.00 0.00 85 1023.9
20260904161551 6 86 0.0 1.6 0.00 0.00 0.00 84 1023.9
20260904160041 6 93 1.6 4.8 0.00 0.00 0.00 84 1024.2
20260904154557 5 82 0.0 3.2 0.00 0.00 0.00 87 1024.1
20260904153056 3 35 0.0 0.0 0.00 0.00 0.00 88 1024.1
20260904151505 3 36 0.0 1.6 0.00 0.00 0.00 89 1024.1
20260904150055 3 34 0.0 0.0 0.00 0.00 0.00 88 1024.1
20260904144554 3 35 0.0 0.0 0.00 0.00 0.00 87 1024.1
20260904143042 3 85 0.0 1.6 0.00 0.00 0.00 87 1024.3
20260904141602 3 243 0.0 1.6 0.00 0.00 0.00 86 1024.0
20260904140052 3 245 0.0 0.0 0.00 0.00 0.00 85 1024.6
20260904134504 3 245 0.0 0.0 0.00 0.00 0.00 86 1024.4
20260904133055 3 245 0.0 0.0 0.00 0.00 0.00 85 1024.2
20260904131552 3 245 0.0 1.6 0.00 0.00 0.00 85 1024.1
20260904130057 3 244 0.0 0.0 0.00 0.00 0.00 85 1024.0
20260904124658 3 244 0.0 1.6 0.00 0.00 0.00 86 1024.0
20260904123049 3 244 0.0 0.0 0.00 0.00 0.00 85 1024.0
20260904121502 3 245 0.0 0.0 0.00 0.00 0.00 84 1023.7
20260904120057 3 245 0.0 0.0 0.00 0.00 0.00 84 1023.5
20260904114549 3 245 0.0 0.0 0.00 0.00 0.00 84 1023.4
20260904113101 3 245 0.0 0.0 0.00 0.00 0.00 83 1023.6
20260904111610 4 245 0.0 0.0 0.00 0.00 0.00 85 1023.6
20260904110047 4 245 0.0 0.0 0.00 0.00 0.00 82 1023.7
20260904104501 4 245 0.0 1.6 0.00 0.00 0.00 82 1023.6
20260904103055 5 215 0.0 0.0 0.00 0.00 0.00 82 1023.7
20260904101552 5 316 0.0 0.0 0.00 0.00 0.00 81 1023.8
20260904100045 5 322 0.0 1.6 0.00 0.00 0.00 80 1023.8
20260904094611 5 322 0.0 3.2 0.00 0.00 0.00 81 1023.8
20260904093051 5 234 0.0 0.0 0.00 0.00 0.00 79 1023.7
20260904091505 5 234 0.0 1.6 0.00 0.00 0.00 78 1023.7
20260904090055 6 233 0.0 1.6 0.00 0.00 0.00 78 1023.6
20260904084549 6 281 0.0 0.0 0.00 0.00 0.00 77 1023.8
20260904083003 6 234 0.0 1.6 0.00 0.00 0.00 75 1023.7
20260904081636 6 245 3.2 6.4 0.00 0.00 0.00 76 1023.4
20260904080043 6 251 0.0 0.0 0.00 0.00 0.00 75 1023.6
20260904074501 7 251 0.0 0.0 0.00 0.00 0.00 72 1023.6
20260904073104 7 250 0.0 1.6 0.00 0.00 0.00 73 1023.8